[Date Prev][Date Next][Thread Prev][Thread Next] - [Date Index][Thread Index][Author Index]
2 Line ISS Keps 8-17
- Subject: [sarex] 2 Line ISS Keps 8-17
- From: "Dave Larsen PhD" <doc@xxxxxxxxxxx>
- Date: Sat, 17 Aug 2002 02:06:08 -0700
ISS
1 25544U 98067A 02229.13379160 .00041667 00000-0 54946-3 0 520
2 25544 51.6380 107.0903 0017222 148.2683 348.4793 15.57810688213532
----
Via the sarex mailing list at AMSAT.ORG courtesy of AMSAT-NA.
To unsubscribe, send "unsubscribe sarex" to Majordomo@amsat.org
AMSAT Home